LEXJLEAS

Guest
Details From LEXJ - Santander
To LEAS - Asturias
Flight Number -
Tags generated
Created
Modified
Stats Distance 97 nm / 179 km
Max Altitude 4,300 ft / 1,311 m
Waypoints 3
Social Downloads 4
Likes 0
Share VATSIM

Download

Looking for another format? Having issues loading an existing format? Contact us
Advertisement - Login to hide

Notes

Basic altitude profile: - Ascent Rate: 2500ft/min - Ascent Speed: 250kts - Cruise Altitude: 35000ft - Cruise Speed: 420kts - Descent Rate: 1500ft/min - Descent Speed: 250kts

Route

LEXJ MUSIL LEAS

ID Type Via Altitude Latitude Longitude Leg Dist Tot Dist Heading (true) Name
O LEXJ APT - 0 ft / 0 m 43.42719˚ -3.82047˚ - 0 nm - Santander
MUSIL FIX - 4,300 ft / 1,311 m 43.54284˚ -5.56393˚ 76 nm 76 nm 276° / 275° -
O LEAS APT - 0 ft / 0 m 43.56350˚ -6.03467˚ 20 nm 96 nm 274° / 273° Asturias

Altitude Profile

Advertisement - Login to hide

LEXJ

Details ICAO LEXJ (SDR)
Name Santander
Region Spain
Timezone Europe/Madrid (UTC+2.0)
Stats Elevation 16 ft / 5 m (AMSL)
Location 43.427188° -3.820470°
Runways 1
Magnetic Variation 0.857° W

METAR

LEXJ 221430Z 06005KT 020V100 9999 FEW030 21/17 Q1015

Decode

TAF

TAF LEXJ 221400Z 2215/2315 VRB05KT 9999 FEW020 TX21/2314Z TN11/2305Z PROB40 TEMPO 2215/2217 03010KT TEMPO 2303/2308 3000 BR PROB30 TEMPO 2303/2306 0800 BCFG BKN003

Decode

Departure Runways

ID Width Length Bearing (true) Bearing (mag) Surface Threshold Offset Overrun Length
11 148 ft / 45 m 7,597 ft / 2,316 m 110.20° 111.06° Asphalt 0 ft / 0 m 98 ft / 30 m
29 148 ft / 45 m 7,597 ft / 2,316 m 290.22° 291.08° Asphalt 0 ft / 0 m 0 ft / 0 m

LEAS

Details ICAO LEAS (OVD)
Name Asturias
Region Spain
Timezone Europe/Madrid (UTC+2.0)
Stats Elevation 416 ft / 127 m (AMSL)
Location 43.563496° -6.034670°
Runways 1
Magnetic Variation 1.571° W

METAR

LEAS 221430Z VRB07KT CAVOK 18/15 Q1016 NOSIG

Decode

TAF

TAF LEAS 221400Z 2215/2315 VRB05KT 9999 SCT025 TX20/2314Z TN11/2305Z PROB40 TEMPO 2215/2217 07010KT TEMPO 2221/2308 3000 BR PROB30 TEMPO 2300/2306 1500 BCFG BKN003

Decode

Destination Runways

ID Width Length Bearing (true) Bearing (mag) Surface Threshold Offset Overrun Length
11 148 ft / 45 m 7,216 ft / 2,200 m 108.09° 109.66° Asphalt 0 ft / 0 m 164 ft / 50 m
29 148 ft / 45 m 7,216 ft / 2,200 m 288.10° 289.67° Asphalt 0 ft / 0 m 164 ft / 50 m

Approach Navaids

Runway Type Ident Frequency Range Bearing (true) Bearing (mag) Slope Elevation
29 Localiser AVS 110.10 MHz 18 nm / 33 km 288.30° 289.87° - 416 ft / 127 m (AMSL)
29 Glidescope AVS 110.10 MHz 10 nm / 19 km 288.09° 289.67° 3.00° 416 ft / 127 m (AMSL)
29 DME AVS 110.10 MHz 18 nm / 33 km - - - 430 ft / 131 m (AMSL)

Popular Alternatives